星链-36064(STARLINK-36064)

导读

STARLINK-36064是美国SpaceX公司星链(Starlink)星座的卫星,于2025年12月4日发射。它属于星链第二代卫星星座组网的一部分,运行在低地球轨道,配备相控阵天线与激光星间链路,依托氩霍尔推进系统实现精准轨道机动,支持全球高速低延迟宽带互联网接入,助力星链实现全球覆盖及手机直连等服务能力,是全球规模最大低轨卫星互联网集群的重要组成部分。

基本信息
目录编号:
66899
目录名称:
STARLINK-36064
国际标识:
2025-283X
轨道中心:
EARTH
卫星名称:
星链-36064
卫星全名:
星链-36064(STARLINK-36064)
卫星状态:
在轨 (已飞行191 天)
发射日期:
2025-12-04 UTC
国别 :
美国 (US)
星等 :
--
轨道信息
数据来源 国际轨道数据
星历时间: 2026-06-12T10:47:58+0800
1天前
查看轨道信息
半长轴: 6840.815km
偏心率: 0.0000881
轨道倾角: 53.161°
近地点辐角 97.003°
升交点赤经 304.691°
平近点角 263.108°
近地点: 462.075km
远地点: 463.281km
周期: 93.847分钟
每日圈数: 15.344087
详细信息
固有亮度:
5
最大亮度:
2.5
卫星平台:
Starlink V1.0
覆盖范围:
全球
运营商:
太空探索技术公司
运营商所在国:
美国
制造商(研发单位):
太空探索技术公司
制造商所在国:
美国
使用方式:
暂无
卫星简介
Starlink 计划是 SpaceX 推出的全球卫星互联网项目,通过发射低轨道卫星,为全球尤其是偏远地区提供高速、低延迟的互联网服务。自 2019 年起,Starlink 已部署数千颗卫星,旨在缩小全球数字鸿沟,推动互联网普及。该项目还为军事、航空等行业提供通信支持,带来广泛经济效益。
2D轨道图
3D轨道图
轨道高度分析图
轨道倾角分析图
轨道综合分析图
查看轨道综合分析图